CDT,Max TemperatureF,Mean TemperatureF,Min TemperatureF,Max Dew PointF,MeanDew PointF,Min DewpointF,Max Humidity, Mean Humidity, Min Humidity, Max Sea Level PressureIn, Mean Sea Level PressureIn, Min Sea Level PressureIn, Max VisibilityMiles, Mean VisibilityMiles, Min VisibilityMiles, Max Wind SpeedMPH, Mean Wind SpeedMPH, Max Gust SpeedMPH,PrecipitationIn, CloudCover, Events, WindDirDegrees
2010-10-1,85,72,59,59,49,41,78,50,22,30.12,30.05,30.01,10,10,10,16,6,21,0.00,0,,25
2010-10-2,84,69,53,52,47,43,77,50,23,30.13,30.09,30.04,10,10,10,16,6,23,0.00,0,,4
2010-10-3,72,61,50,51,41,34,69,47,25,30.33,30.24,30.14,10,10,10,17,8,22,0.00,0,,23
2010-10-4,74,61,47,42,38,34,80,52,23,30.38,30.30,30.25,10,10,10,14,5,17,0.00,0,,58
2010-10-5,78,62,46,40,35,28,71,44,16,30.40,30.33,30.27,10,10,10,13,4,16,0.00,0,,75
2010-10-6,83,65,46,41,36,29,77,46,14,30.37,30.28,30.19,10,10,10,9,1,14,0.00,0,,175
2010-10-7,87,68,48,44,37,29,77,45,13,30.27,30.19,30.14,10,10,10,8,2,10,0.00,0,,239
2010-10-8,88,70,51,51,42,33,83,49,15,30.19,30.12,30.06,10,10,10,14,2,17,0.00,0,,240
2010-10-9,88,70,52,52,45,38,83,50,17,30.13,30.07,30.01,10,10,10,15,4,20,0.00,0,,207
2010-10-10,87,71,55,59,51,46,80,54,27,30.05,29.97,29.88,10,10,10,20,6,25,0.00,0,,196
2010-10-11,71,66,61,65,62,53,100,84,67,29.98,29.92,29.86,10,9,2,21,7,26,0.23,5,Rain-Thunderstorm,111
2010-10-12,81,69,57,63,57,51,100,68,36,30.09,30.00,29.92,10,9,6,20,7,26,0.00,0,,293
2010-10-13,83,70,56,58,55,50,93,65,37,30.23,30.15,30.08,10,10,10,21,9,28,0.00,0,,338
2010-10-14,76,63,50,48,42,36,77,50,23,30.32,30.24,30.18,10,10,10,14,5,20,0.00,0,,3
2010-10-15,85,65,44,50,44,39,93,57,20,30.20,30.13,30.07,10,10,10,8,1,12,0.00,0,,197
2010-10-16,85,67,49,51,44,35,96,57,17,30.19,30.12,30.08,10,10,10,10,2,15,0.00,0,,183
2010-10-17,83,68,53,60,51,44,86,57,28,30.18,30.09,30.01,10,10,10,14,5,17,0.00,0,,193
2010-10-18,85,73,60,65,60,51,97,67,37,30.06,29.98,29.89,10,9,4,12,6,16,0.00,2,,192
2010-10-19,86,74,62,63,60,57,93,67,40,30.01,29.95,29.89,10,10,9,16,6,21,0.00,1,,208
2010-10-20,85,74,62,62,59,56,93,67,40,30.07,30.02,29.96,10,10,10,9,3,13,0.00,2,,50
2010-10-21,86,73,59,64,58,54,90,63,35,30.08,30.01,29.94,10,10,6,12,5,16,0.00,0,,125
2010-10-22,84,75,66,68,64,53,97,71,44,30.08,30.01,29.94,10,8,1,22,11,28,T,4,,150
2010-10-23,82,72,61,66,63,60,100,77,54,30.03,29.98,29.86,10,8,0,29,10,39,1.08,6,Fog-Rain-Thunderstorm,131
2010-10-24,85,74,62,70,65,61,100,76,51,29.96,29.87,29.71,10,8,1,24,12,37,0.90,7,Rain-Thunderstorm,188
2010-10-25,84,75,66,70,67,64,93,74,55,29.78,29.61,29.43,10,9,6,29,17,37,0.00,3,,188
2010-10-26,78,67,56,70,53,37,82,52,22,29.81,29.66,29.47,10,10,7,24,6,32,T,3,Rain,287
2010-10-27,87,72,56,68,54,31,83,53,23,30.20,29.93,29.81,10,10,10,18,9,24,0.00,1,,192
2010-10-28,71,59,46,35,31,27,61,41,20,30.45,30.37,30.22,10,10,10,21,9,30,0.00,1,,353
2010-10-29,69,54,39,38,32,25,82,51,19,30.46,30.36,30.23,10,10,7,14,4,18,0.00,0,,36
2010-10-30,75,57,39,41,36,31,86,53,20,30.21,30.10,29.99,10,10,7,15,8,20,0.00,0,,178
2010-10-31,82,65,48,57,49,36,83,57,30,30.02,29.96,29.91,10,10,10,18,9,23,0.00,0,,173